Weather observations for the past three days for
Laramie Regional Airport
Imperial (Metric)
Date Time (mdt) Wind (mph) Vis. (mi.) Weather Sky Cond. Temperature (ºF) Relative Humidity Wind Chill (°F) Heat Index (°F) Pressure Precipitation (in)
Air Dwpt 6 hour altimeter (in) sea level (mb) 1 hr 3 hr 6 hr
Max. Min.
15 02:53 W 7 10.00 Partly Cloudy SCT100 63 48.9 60% 30.3 1012.1
15 01:53 SW 13 10.00 A Few Clouds FEW120 64 48.9 58% 30.29 1012.0
15 00:53 SW 13 10.00 A Few Clouds FEW110 62.1 48.9 62% 30.31 1012.6
14 23:53 SW 8 10.00 Fair CLR 63 48.9 77 61 60% 30.31 1012.4 0.03
14 22:53 S 8 10.00 Mostly Cloudy BKN100 66 48.9 54% 30.31 1012.3
14 21:53 SE 8 10.00 Fair CLR 69.1 46.9 45% 30.32 1012.7
14 20:53 SE 7 10.00 Mostly Cloudy BKN100 70 48 46% 30.31 1013.2 0.03
14 19:53 Calm 10.00 Mostly Cloudy BKN100 BKN110 73.9 51.1 45% 30.32 1013.9
14 18:53 E 8 10.00 Fair CLR 73.9 53.1 48% 30.3 1014.2 0.03
14 17:53 S 21 G 41 5.00 Thunderstorm Rain and Breezy BKN100 BKN120 73 52 91.9 71.1 48% 30.31 1015.0 0.03 0.06
14 16:53 S 13 G 31 10.00 Thunderstorm FEW080 OVC100 78.1 46 32% 78 30.34 1015.5
14 15:53 N 14 G 26 10.00 Mostly Cloudy FEW037 BKN110 80.1 45 29% 79 30.34 1015.2 0.03
14 14:53 NW 23 G 31 10.00 Fair and Breezy CLR 91 37 15% 87 30.33 1013.0
14 13:53 W 15 G 25 10.00 Fair CLR 88 35.1 15% 84 30.33 1012.8
14 12:53 NW 15 G 23 10.00 Mostly Cloudy BKN110 89.1 35.1 15% 85 30.34 1013.8
14 11:53 NW 12 G 21 10.00 A Few Clouds FEW110 90 35.1 91 57.9 14% 86 30.36 1013.8
14 10:53 W 18 G 28 10.00 Fair CLR 90 35.1 14% 86 30.37 1013.5
14 09:53 NW 10 10.00 Fair CLR 87.1 36 16% 84 30.38 1014.1
14 08:53 Vrbl 3 10.00 Fair CLR 78.1 39.9 26% 78 30.39 1015.6
14 07:53 SE 8 10.00 Fair CLR 70 37 30% 30.39 1015.4
14 06:53 SE 7 10.00 Fair CLR 62.1 37 40% 30.38 1015.3
14 05:53 S 9 10.00 Fair CLR 57.9 37 71.1 57 46% 30.36 1015.3
14 04:53 S 13 10.00 Fair CLR 59 37.9 46% 30.35 1014.2
14 03:53 SE 9 10.00 Fair CLR 60.1 37.9 44% 30.34 1014.1
14 02:53 S 8 10.00 Fair CLR 63 37 38% 30.34 1012.9
14 01:53 S 9 10.00 Fair CLR 68 37 32% 30.36 1013.7
14 00:53 SW 7 10.00 Fair CLR 62.1 39 43% 30.38 1015.0
13 23:53 S 9 10.00 Fair CLR 66.9 39.9 90 66.9 37% 30.37 1014.1 0.01
13 22:53 E 10 10.00 Fair CLR 73 39 29% 30.38 1014.2
13 21:53 E 10 10.00 Fair CLR 73 41 32% 30.39 1015.0
13 20:53 N 13 G 37 10.00 Thunderstorm Light Rain FEW044 SCT065 BKN080 73 46 38% 30.38 1015.1 0.01 0.01
13 19:53 N 15 G 22 10.00 Fair CLR 84 30 14% 81 30.34 1013.2
13 18:53 W 16 G 23 10.00 Fair CLR 89.1 32 13% 85 30.33 1013.5
13 17:53 Vrbl 3 10.00 A Few Clouds FEW037 87.1 37.9 96.1 84 18% 84 30.33 1014.4
13 16:53 NW 12 G 16 10.00 A Few Clouds FEW100 91 25 9% 87 30.33 1014.3
13 15:53 W 7 G 20 10.00 Fair CLR 90 24.1 9% 86 30.35 1014.2
13 14:53 NW 12 G 25 10.00 Fair CLR 96.1 24.1 7% 91 30.36 1014.1
13 13:53 NW 15 G 30 10.00 Fair CLR 91.9 24.1 8% 88 30.36 1014.0
13 12:53 NW 17 G 29 10.00 Fair CLR 91.9 25 9% 88 30.37 1014.6
13 11:53 NW 15 G 26 10.00 Fair CLR 91.9 24.1 91.9 54 8% 88 30.38 1015.0
13 10:53 N 13 G 22 10.00 Fair CLR 89.1 25 10% 85 30.38 1014.5
13 09:53 NE 5 10.00 Fair CLR 84.9 27 12% 82 30.38 1014.5
13 08:53 S 8 10.00 Fair CLR 79 36 21% 78 30.39 1014.8
13 07:53 SW 8 10.00 Fair CLR 72 32 23% 30.38 1014.3
13 06:53 S 7 10.00 Fair CLR 61 30.9 32% 30.37 1014.9
13 05:53 S 8 10.00 Fair CLR 55 27 63 55 34% 30.35 1014.4
13 04:53 SE 3 10.00 Fair CLR 55 26.1 33% 30.33 1013.6
13 03:53 S 7 10.00 Fair CLR 60.1 26.1 27% 30.32 1012.6
13 02:53 S 8 10.00 Fair CLR 57 26.1 30% 30.3 1012.6
13 01:53 S 12 10.00 Fair CLR 61 27 27% 30.3 1012.2
13 00:53 S 8 10.00 Fair CLR 62.1 24.1 23% 30.3 1012.3
12 23:53 SE 8 10.00 Fair CLR 61 25 93 61 25% 30.3 1012.2
12 22:53 SW 7 10.00 Fair CLR 68 21 17% 30.3 1012.0
12 21:53 N 7 10.00 Fair CLR 75 19.9 12% 75 30.29 1011.5
12 20:53 N 9 10.00 Fair CLR 79 23 12% 78 30.28 1010.8
12 19:53 N 15 10.00 Fair CLR 87.1 24.1 10% 84 30.27 1010.3
12 18:53 NW 12 10.00 Fair CLR 91 18 7% 87 30.26 1010.3
12 17:53 W 21 G 26 10.00 Fair and Breezy CLR 93.9 18 95 90 6% 89 30.25 1010.5
12 16:53 NW 13 G 23 10.00 Fair CLR 93.9 18 6% 89 30.26 1011.0
12 15:53 NW 16 G 26 10.00 Fair CLR 93.9 16 6% 89 30.28 1011.2
12 14:53 NW 16 G 33 10.00 Fair CLR 93 18 6% 89 30.28 1011.2
12 13:53 N 10 G 26 10.00 Fair CLR 93 23 8% 88 30.28 1011.1
12 12:53 W 20 G 28 10.00 Fair CLR 91.9 26.1 9% 88 30.29 1011.2
12 11:53 NW 17 G 32 10.00 Fair CLR 91 30 91 57.9 11% 87 30.3 1011.5
12 10:53 N 12 G 25 10.00 Fair CLR 87.1 32 14% 83 30.3 1011.8
12 09:53 N 16 10.00 Fair CLR 82 30 15% 80 30.3 1012.3
12 08:53 NE 6 10.00 Fair CLR 78.1 30.9 18% 77 30.3 1012.2
12 07:53 SE 7 10.00 Fair CLR 72 35.1 26% 30.29 1011.6
12 06:53 SE 6 10.00 Fair CLR 64 33.1 32% 30.27 1010.9
12 05:53 SE 10 10.00 Fair CLR 57.9 32 69.1 55 38% 30.25 1010.7
12 04:53 SE 9 10.00 Fair CLR 55 35.1 47% 30.23 1010.7
12 03:53 S 9 10.00 Fair CLR 59 35.1 41% 30.22 1010.0
Date Time (mdt) Wind (mph) Vis. (mi.) Weather Sky Cond. Air Dwpt Max. Min. Relative Humidity Wind Chill (°F) Heat Index (°F) altimeter (in) sea level (mb) 1 hr 3 hr 6 hr
6 hour
Temperature (ºF) Pressure Precipitation (in)